Flag for India Weather past 2 weeks in Nagaur, Rajasthan, India

Now
81 °F

Haze.


Feels Like: 83 °F
Forecast: 76 / 94 °F
Wind: 7 mph from Northwest

Location: Jaipur / Sanganer

Current Time: Sep 22, 2014 at 12:38:04 AM

Latest Report: Sep 21, 2014 at 11:00 PM


Visibility: 2 mi

Pressure: 29.80 "Hg

Humidity: 62%

Dew point: 66 °F

Location of NagaurLocation

Historic Weather in Nagaur — Graph

°F

Nagaur temperature yesterday

Maximum temperature yesterday: 93 °F (at 3:00 PM)
Minimum temperature yesterday: 77 °F (at 3:00 AM)
Average temperature yesterday: 85 °F

Past Weeks' High & Low Weather Summary

 TemperatureHumidityPressure
High93 °F (Sep 10, 1:00 PM)100% (Sep 11, 8:00 PM)29.83 "Hg (Sep 11, 8:00 PM)
Low72 °F (Sep 19, 3:00 AM)36% (Sep 19, 4:00 PM)29.65 "Hg (Sep 8, 6:00 PM)
Average84 °F72%29.74 "Hg
* Reported Sep 6 11:00 PM — Sep 21 11:00 PM, Nagaur, Weather by CustomWeather, © 2014

Note: Actual official high and low records may vary slightly from our data, if they occured in-between our weather recording intervals... More about our weather records

Advertising

Nagaur weather history for previous 24 hours

 ConditionsComfort  
Time TempWeatherWind HumidityBarometerVisibility
11:00 PM
Sep 21
81 °FHaze.7 mph62%29.80 "Hg2 mi
10:00 PM82 °FHaze.7 mph58%29.80 "Hg2 mi
9:00 PM84 °FHaze.6 mph55%29.77 "Hg2 mi
8:00 PM86 °FHaze.5 mph52%29.77 "Hg2 mi
7:00 PM88 °FHaze.7 mph49%29.74 "Hg2 mi
6:00 PM90 °FHaze.8 mph49%29.71 "Hg2 mi
5:00 PM91 °FHaze.8 mph44%29.71 "Hg2 mi
4:00 PM93 °FHaze.8 mph41%29.71 "Hg2 mi
3:00 PM93 °FHaze.8 mph44%29.71 "Hg2 mi
2:00 PM91 °FHaze.8 mph46%29.74 "Hg2 mi
1:00 PM91 °FHaze.10 mph49%29.77 "Hg2 mi
12:00 PM91 °FHaze.7 mph52%29.77 "Hg2 mi
11:00 AM86 °FHaze.12 mph59%29.80 "Hg2 mi
9:00 AM82 °FHaze.13 mph62%29.80 "Hg2 mi
8:00 AM81 °FHaze.8 mph66%29.77 "Hg2 mi
7:00 AM77 °FHaze.6 mph74%29.74 "Hg2 mi
6:00 AM77 °FHaze.6 mph74%29.74 "Hg2 mi
5:00 AM79 °FHaze.7 mph70%29.71 "Hg2 mi
4:00 AM77 °FHaze.7 mph74%29.71 "Hg2 mi
3:00 AM77 °FHaze.5 mph74%29.74 "Hg2 mi
Weather by CustomWeather, © 2014

See weather overviewHow to use our weather pages